STARLINK-32529, 62139

Orbit data source: Space-Track

STARLINK-32529, 62139 is a payload satellite owned by SpaceX/Seattle (US) in LEO that was launched on Sat, 30 Nov 2024 UTC via an FALCON 9 launch vehicle from the Air Force Eastern Test Range (AFETR). Payload-class satellites include a variety of spacecraft equipped with specific instruments for various scientific and technological missions. These include communications satellites like Starlink; space stations such as the ISS; scientific satellites like the Hubble; Earth observation satellites from companies like Planet Labs, Umbra, and HawkEye 360; GPS; miniature CubeSats for education and research; and military/defense satellites.

Loading next visibility...
Identifier
62139, 2024-224A
Orbit
LEO
Country
Flag of USUS
Related business
Manufacturer
SpaceX/Seattle
Mission
Operational Commercial Communications
Bus & Motor
STARLINK V2M, Unknown motor
Mass
730 kg wet, ~700 kg dry
Launch date (UTC)
2024-11-30 (2 years ago)
Launch vehicle
FALCON 9
Launch site
Air Force Eastern Test Range (AFETR)
Object type
Payload
Rocket body
Debris
Shape & HBR
Box + 2 Pan, 17.7 m
Radar Cross Section
33.884 m², Large (>1 m²)

Expand to show TLE details & history
Last TLE update: 11 hours ago

TLE from 11 hours ago
0 STARLINK-32529
1 62139U 24224A   26171.38641819  .00016840  00000-0  61983-3 0  9991
2 62139  43.0013 298.3691 0001329 263.6594  96.4107 15.27593024 88126
Epoch: 2026-06-20T09:16Z
TLE epoch observation values (Epoch: 2026-06-20T09:16:26.531Z)
Latitude
0.00002°
Longitude
-109.34321°
Altitude
482.888 km
Speed
7.626 km/s
True Right ascension
19h 53m 28s
True Declination
0° 00' 00"
Sunlit
Object was in full shadow at epoch
Visualization orbit readout
Latitude
Unknown
Longitude
Unknown
Altitude
Unknown
Speed
Unknown
Apparent Right ascension
Unknown
Apparent Declination
Unknown
Sunlit
N/A
Visualization observer readout
Local Sidereal Time
07:24:30
Azimuth
Unknown
Elevation
Unknown
Doppler factor
Unknown
Orbital elements
Apogee altitude
485.867 km
Perigee altitude
484.043 km
Semi-major axis
6,863.092 km
Eccentricity
0.00013
Inclination
43.0013°
RAAN
298.3691°
Arg. of periapsis
263.6594°
True anomaly
96.42583°
Mean anomaly
96.4107°
Eccentric anomaly
96.41827°
Mean motion
3.81736 °/min
Orbital period
94.31 mins
BSTAR
0.00061983
Loading maneuver chart data...
Computing Atmospheric mass density...
Loading historical data...
Loading historical data...
Loading historical data...
Loading historical data...
Loading historical data...
Loading historical data...
Loading historical data...

Documentation

Showing up to 5 results
|